OneWeb SL0366

operational
NORAD ID: 49292 Int'l Des: 2021-090 Owner: ONEWEBN Country: UK Constellation: oneweb
LEOCIRCULARPOLARONEWEB_TYPE

Über OneWeb SL0366

Beschreibung wird geladen...

Live-Position

3D-Globus wird geladen...

Nächste Überflüge

Höhenverlauf

Altitude vs Time

uPlot chart will show altitude changes over time

Zweizeiliger Elementsatz

1 49292U 21090P 25351.43826834 -.00000106 00000-0 -32152-3 0 9997
2 49292 87.8986 325.9289 0001806 86.8216 273.3120 13.14504260203681
Epoch: 17. Dez. 2025 • Age: 11 hours

Aktueller Status

Höhe 1217.6 km
Geschwindigkeit 7.25 km/s
Subsatellitenpunkt 77.19°N, 79.77°W
Startdatum 14. Okt. 2021
Alter 4.1 years
Typ internet

Technische Details

Klassifizierung Payload
Masse 148.00 kg
Trockenmasse 140.00 kg
Gesamtmasse 148.00 kg
Länge 1.30 m
Durchmesser 1.00 m
Spannweite 5.00 m
Form Trapezoid+2 pan
Hersteller ONEWUS
Bus-Typ ARROW
Phasenstatus In Orbit
Besitzer/Staat ONEWEBN/UK

Große Konstellationen

Loading constellations...